Location: Nied?wied?
(53.3665°N, 14.8184°E)
Time: 23:22:08
(UTC+00:00)

Cosmos 1869 Rocket - Pass Details

Date: 03 March 2021
Orbit: 605 x 633 km, 82.5° (Epoch: 12 April)

Event Time Altitude Azimuth Distance (km) Brightness Sun altitude
Rises 18:14:57 0° 165° (SSE) 2,866 6.7 -14.5°
Reaches altitude 10° 18:17:17 10° 157° (SSE) 1,970 5.8 -14.9°
Maximum altitude 18:21:16 36° 91° (E) 995 4.1 -15.4°
Drops below altitude 10° 18:25:18 10° 26° (NNE) 2,001 6.0 -16.0°
Sets 18:27:40 0° 17° (NNE) 2,917 7.0 -16.4°
